When you browse on this site, cookies collect data to enhance your experience and personalize the content and advertising you see.
Visit our Privacy Policy to learn more. By continuing to use the site, you agree to this use of cookies and data.
  • In Austria
  • List of Countries
  • For 7 days
  • Water Temperature
  • Satellite Maps
  • Weather Map
  • News
  • Weather Widgets
  • user-avatar
    Login

    Hourly Weather Gwizd

    Today, 17 December, Monday

    Time Temperature Precipitation Wind Pressure Humidity
    00:00 -4°C° 0 mm 3 mps 761 mmHg 79%
    01:00 -4°C° 0 mm 3 mps 762 mmHg 79%
    02:00 -4°C° 0 mm 3 mps 762 mmHg 79%
    03:00 -4°C° 0 mm 3 mps 762 mmHg 78%
    04:00 -4°C° 0 mm 3 mps 762 mmHg 78%
    05:00 -4°C° 0 mm 3 mps 762 mmHg 79%
    06:00 -4°C° 0 mm 3 mps 762 mmHg 80%
    07:00 -3°C° 0 mm 2 mps 763 mmHg 80%
    08:00 -3°C° 0 mm 2 mps 763 mmHg 79%
    09:00 -3°C° 0 mm 2 mps 763 mmHg 78%
    10:00 -3°C° 0 mm 2 mps 764 mmHg 77%
    11:00 0°C° 0 mm 1 mps 764 mmHg 75%
    12:00 0°C° 0 mm 1 mps 764 mmHg 73%
    13:00 +1°C° 0 mm 1 mps 765 mmHg 71%
    14:00 0°C° 0 mm 1 mps 765 mmHg 74%
    15:00 0°C° 0 mm 1 mps 765 mmHg 77%
    16:00 -1°C° 0 mm 1 mps 766 mmHg 80%
    17:00 -1°C° 0 mm 1 mps 766 mmHg 80%
    18:00 -3°C° 0 mm 2 mps 766 mmHg 81%
    19:00 -3°C° 0 mm 2 mps 766 mmHg 82%
    20:00 -3°C° 0 mm 2 mps 767 mmHg 82%
    21:00 -3°C° 0 mm 2 mps 767 mmHg 83%
    22:00 -3°C° 0 mm 2 mps 767 mmHg 84%
    23:00 -3°C° 0 mm 2 mps 767 mmHg 85%

    Tomorrow, 18 December, Tuesday

    Time Temperature Precipitation Wind Pressure Humidity
    00:00 -3°C° 0 mm 2 mps 768 mmHg 86%
    01:00 -3°C° 0 mm 2 mps 768 mmHg 86%
    02:00 -3°C° 0 mm 2 mps 768 mmHg 88%
    03:00 -3°C° 0 mm 2 mps 767 mmHg 89%
    04:00 -3°C° 0 mm 2 mps 767 mmHg 90%
    05:00 -4°C° 0 mm 3 mps 767 mmHg 91%
    06:00 -4°C° 0 mm 3 mps 768 mmHg 91%
    07:00 -2°C° 0 mm 3 mps 768 mmHg 92%
    08:00 -2°C° 0 mm 3 mps 768 mmHg 92%
    09:00 -2°C° 0 mm 3 mps 768 mmHg 92%
    10:00 -1°C° 0 mm 3 mps 768 mmHg 91%
    11:00 -1°C° 0 mm 3 mps 768 mmHg 91%
    12:00 0°C° 0 mm 3 mps 768 mmHg 90%
    13:00 0°C° 0 mm 3 mps 767 mmHg 90%
    14:00 0°C° 0 mm 3 mps 767 mmHg 92%
    15:00 0°C° 0 mm 3 mps 767 mmHg 94%
    16:00 0°C° 0 mm 3 mps 767 mmHg 96%
    17:00 0°C° 0 mm 3 mps 767 mmHg 96%
    18:00 0°C° 0 mm 3 mps 767 mmHg 96%
    19:00 0°C° 0 mm 3 mps 767 mmHg 96%
    20:00 0°C° 0 mm 3 mps 767 mmHg 96%
    21:00 -1°C° 0 mm 4 mps 767 mmHg 96%
    22:00 -1°C° 0 mm 4 mps 767 mmHg 96%
    23:00 -1°C° 0 mm 4 mps 767 mmHg 96%

    Day after tomorrow, 19 December, Wednesday

    Time Temperature Precipitation Wind Pressure Humidity
    00:00 -1°C° 0 mm 4 mps 767 mmHg 96%
    01:00 -1°C° 0 mm 4 mps 767 mmHg 96%
    02:00 -1°C° 0 mm 4 mps 766 mmHg 95%
    03:00 -1°C° 0 mm 5 mps 766 mmHg 95%
    04:00 -1°C° 0 mm 5 mps 766 mmHg 95%
    05:00 -1°C° 0 mm 5 mps 766 mmHg 94%
    06:00 -2°C° 0 mm 6 mps 766 mmHg 93%
    07:00 -2°C° 0 mm 6 mps 765 mmHg 91%
    08:00 -2°C° 0 mm 6 mps 765 mmHg 88%
    09:00 -2°C° 0 mm 7 mps 765 mmHg 85%
    10:00 -2°C° 0 mm 7 mps 765 mmHg 82%
    11:00 -1°C° 0 mm 8 mps 765 mmHg 80%
    12:00 -1°C° 0 mm 8 mps 764 mmHg 78%
    13:00 -1°C° 0 mm 8 mps 764 mmHg 76%
    14:00 -2°C° 0 mm 8 mps 764 mmHg 77%
    15:00 -2°C° 0 mm 8 mps 763 mmHg 78%
    16:00 -4°C° 0 mm 8 mps 763 mmHg 78%
    17:00 -4°C° 0 mm 8 mps 763 mmHg 79%
    18:00 -4°C° 0 mm 8 mps 763 mmHg 79%
    19:00 -4°C° 0 mm 8 mps 762 mmHg 80%
    20:00 -4°C° 0 mm 8 mps 762 mmHg 79%
    21:00 -3°C° 0 mm 7 mps 762 mmHg 79%
    22:00 -3°C° 0 mm 7 mps 762 mmHg 79%
    23:00 -3°C° 0.1 mm 7 mps 762 mmHg 80%

    20 December, Thursday

    Time Temperature Precipitation Wind Pressure Humidity
    00:00 -3°C° 0.1 mm 7 mps 762 mmHg 80%
    01:00 -3°C° 0.1 mm 7 mps 762 mmHg 81%
    02:00 -3°C° 0.1 mm 7 mps 762 mmHg 82%
    03:00 -3°C° 0.1 mm 7 mps 762 mmHg 82%
    04:00 -3°C° 0.1 mm 6 mps 762 mmHg 83%
    05:00 -3°C° 0.1 mm 6 mps 762 mmHg 83%
    06:00 -3°C° 0.1 mm 6 mps 762 mmHg 84%
    07:00 -3°C° 0.1 mm 6 mps 762 mmHg 84%
    08:00 -3°C° 0.2 mm 6 mps 762 mmHg 84%
    09:00 -3°C° 0.2 mm 6 mps 762 mmHg 85%
    10:00 -3°C° 0.2 mm 6 mps 762 mmHg 85%
    11:00 -1°C° 0.2 mm 5 mps 762 mmHg 86%
    12:00 -1°C° 0.2 mm 5 mps 762 mmHg 86%
    13:00 -1°C° 0.2 mm 5 mps 762 mmHg 86%
    14:00 -1°C° 0.1 mm 5 mps 762 mmHg 86%
    15:00 -1°C° 0.1 mm 5 mps 762 mmHg 86%
    16:00 -2°C° 0.1 mm 4 mps 762 mmHg 86%
    17:00 -2°C° 0 mm 4 mps 762 mmHg 86%
    18:00 -2°C° 0 mm 4 mps 762 mmHg 85%
    19:00 -2°C° 0 mm 4 mps 762 mmHg 85%
    20:00 -2°C° 0 mm 4 mps 762 mmHg 86%
    21:00 -2°C° 0 mm 4 mps 762 mmHg 87%
    22:00 -1°C° 0 mm 3 mps 763 mmHg 88%
    23:00 -1°C° 0.1 mm 3 mps 763 mmHg 89%

    21 December, Friday

    Time Temperature Precipitation Wind Pressure Humidity
    00:00 -2°C° 0.1 mm 4 mps 763 mmHg 89%
    01:00 -2°C° 0.1 mm 4 mps 763 mmHg 90%
    02:00 -1°C° 0.2 mm 3 mps 762 mmHg 90%
    03:00 -1°C° 0.2 mm 3 mps 762 mmHg 91%
    04:00 -1°C° 0.2 mm 3 mps 762 mmHg 91%
    05:00 -1°C° 0.2 mm 3 mps 762 mmHg 91%
    06:00 -1°C° 0.2 mm 3 mps 762 mmHg 91%
    07:00 -1°C° 0.2 mm 3 mps 762 mmHg 91%
    08:00 -1°C° 0.1 mm 3 mps 762 mmHg 91%
    09:00 -1°C° 0.1 mm 3 mps 763 mmHg 90%
    10:00 -2°C° 0.1 mm 4 mps 763 mmHg 90%
    11:00 -1°C° 0.1 mm 3 mps 763 mmHg 89%
    12:00 -1°C° 0.1 mm 3 mps 762 mmHg 89%
    13:00 -1°C° 0.1 mm 3 mps 762 mmHg 89%
    14:00 -1°C° 0 mm 3 mps 762 mmHg 89%
    15:00 -1°C° 0 mm 3 mps 762 mmHg 90%
    16:00 -2°C° 0 mm 4 mps 762 mmHg 91%
    17:00 -2°C° 0 mm 4 mps 762 mmHg 91%
    18:00 -2°C° 0 mm 4 mps 762 mmHg 91%
    19:00 -2°C° 0 mm 4 mps 762 mmHg 91%
    20:00 -3°C° 0 mm 4 mps 762 mmHg 91%
    21:00 -3°C° 0 mm 4 mps 762 mmHg 91%
    22:00 -3°C° 0 mm 4 mps 762 mmHg 92%
    23:00 -3°C° 0 mm 4 mps 762 mmHg 92%

    22 December, Saturday

    Time Temperature Precipitation Wind Pressure Humidity
    00:00 -3°C° 0 mm 4 mps 761 mmHg 91%
    01:00 -3°C° 0 mm 4 mps 761 mmHg 91%
    02:00 -3°C° 0 mm 4 mps 761 mmHg 91%
    03:00 -3°C° 0 mm 4 mps 761 mmHg 91%
    04:00 -3°C° 0 mm 4 mps 761 mmHg 91%
    05:00 -3°C° 0 mm 4 mps 761 mmHg 91%
    06:00 -3°C° 0 mm 4 mps 761 mmHg 90%
    07:00 -3°C° 0 mm 4 mps 761 mmHg 90%
    08:00 -3°C° 0 mm 4 mps 762 mmHg 90%
    09:00 -3°C° 0 mm 4 mps 762 mmHg 89%
    10:00 -3°C° 0 mm 4 mps 762 mmHg 88%
    11:00 -2°C° 0 mm 4 mps 763 mmHg 88%
    12:00 -1°C° 0 mm 3 mps 763 mmHg 88%
    13:00 -1°C° 0 mm 3 mps 763 mmHg 87%
    14:00 -1°C° 0 mm 3 mps 763 mmHg 88%
    15:00 -1°C° 0 mm 3 mps 764 mmHg 89%
    16:00 -1°C° 0 mm 3 mps 764 mmHg 90%
    17:00 -1°C° 0 mm 3 mps 764 mmHg 90%
    18:00 -1°C° 0 mm 3 mps 765 mmHg 90%
    19:00 -1°C° 0 mm 3 mps 765 mmHg 91%
    20:00 -1°C° 0 mm 3 mps 765 mmHg 91%
    21:00 -1°C° 0 mm 3 mps 765 mmHg 91%
    22:00 -1°C° 0 mm 2 mps 766 mmHg 92%
    23:00 -1°C° 0 mm 2 mps 766 mmHg 92%
    Show more